User: anonymous   Login
Location: Santa Barbara
(34.4500°N, 119.7700°W)
Time: 00:02:19
(UTC-07:00)
Language:

Cosmos 1892 Rocket - Orbit

View from above orbital plane
View from above orbital plane
View from above satellite
View from above satellite

Ground track
Ground track

The orbit data is extracted from the following two-line orbital elements,

1 18422U 87088B   17118.90888880 +.00000113 +00000-0 +11041-4 0  9991
2 18422 082.5138 223.0423 0018293 239.1229 256.7301 14.82921645573420
Epoch (UTC): 28 April 2017 21:48:47
Eccentricity: 0.0018293
inclination: 82.5138°
perigee height: 607 km
apogee height: 633 km
right ascension of ascending node: 223.0423°
argument of perigee: 239.1229°
revolutions per day: 14.82921645
mean anomaly at epoch: 256.7301°
orbit number at epoch: 57342

The dashed part of the orbit path shows where the satellite is in the earth's shadow,  

DLR